Regional Weather Roundup
Issued by NWS San Angelo, TX

Current Version | Previous Version | Text Only | Print | Product List | Glossary On
Versions: 1 2 3 4 5 6 7 8 9 10 11 12 13 14 15 16 17 18 19 20 21 22 23 24 25 26 27 28 29 30 31 32 33 34 35 36 37 38 39 40 41 42 43 44 45 46 47 48 49 50
000
ASUS44 KSJT 062111
RWRSJT
WEST CENTRAL TEXAS REGIONAL WEATHER ROUNDUP
NATIONAL WEATHER SERVICE SAN ANGELO TX
400 PM CDT FRI MAY 06 2016

NOTE: "FAIR" INDICATES FEW OR NO CLOUDS BELOW 12,000 FEET WITH NO
SIGNIFICANT WEATHER AND/OR OBSTRUCTIONS TO VISIBILITY.

TXZ049-054-064>066-071>073-076>078-098-099-113-114-127-128-139-140-
154-155-168>170-062200
...LOCATIONS ACROSS WEST CENTRAL TEXAS...

CITY           SKY/WX    TMP DP  RH WIND       PRES   REMARKS
SAN ANGELO     SUNNY     89  47  23 SE16G22   29.98F
ABILENE        SUNNY     84  53  34 S17       30.03F
DYESS AFB      SUNNY     83  59  42 SE14G25   30.00F
JUNCTION       SUNNY     87  49  26 SE14      30.01F
SWEETWATER     SUNNY     83  48  29 SE17G25   30.04F
BROWNWOOD      SUNNY     82  46  28 SE9G18    30.03F
COLEMAN        CLEAR     85  49  28 SE10G21   30.03F
SONORA         SUNNY     86  43  22 SE16G22   30.05F
OZONA          FAIR      88  43  20 S20G25    30.02F
BRADY          NOT AVBL
$$

TEXAS PANHANDLE/OKLAHOMA PANHANDLE

CITY           SKY/WX    TMP DP  RH WIND       PRES   REMARKS
AMARILLO       SUNNY     84  40  21 SE23G35   30.00F
BORGER         SUNNY     86  46  24 S16G31    29.98F
CANADIAN       SUNNY     85  51  30 S16G23    29.98F
DALHART        SUNNY     84  34  16 S29G36    29.99F
DUMAS          CLEAR     83  40  21 S24G33    29.98F
GUYMON         NOT AVBL
HEREFORD       CLEAR     86  35  15 S20G36    29.99F
PAMPA          CLEAR     84  46  26 S20G25    30.01F
PERRYTON       SUNNY     87  46  24 S20G25    29.98F
$$

SOUTHERN PANHANDLE/SOUTH PLAINS/ROLLING PLAINS

CITY           SKY/WX    TMP DP  RH WIND       PRES   REMARKS
LUBBOCK        SUNNY     87  35  15 SE30G37   29.97F
SNYDER           N/A     85  47  26 SE22      30.00F
CHILDRESS      SUNNY     87  47  24 S20G28    29.98F
SEMINOLE       CLEAR     88  34  14 S24G33    29.96F
$$

PERMIAN BASIN

CITY           SKY/WX    TMP DP  RH WIND       PRES   REMARKS
MIDLAND        SUNNY     91  33  12 S31G39    29.95F
ODESSA         SUNNY     90  32  12 S26G37    29.95F
WINK           SUNNY     94  39  14 SE25G43   29.86F
$$

FAR WEST/SOUTHWEST MOUNTAINS/TRANS PECOS

CITY           SKY/WX    TMP DP  RH WIND       PRES   REMARKS
ALPINE         CLEAR     89  34  14 S16G28    30.04F
DRYDEN           N/A     93  43  17 SE25G36   29.92F
EL PASO        MOSUNNY   95  12   5 S24G40    29.81F
FORT STOCKTON  NOT AVBL
GUADALUPE PASS SUNNY     86  29  12 SW18G25   29.99F
MARFA          NOT AVBL
PECOS          CLEAR     97  35  11 SE15G25   29.81F
$$

DALLAS/FORT WORTH METROPLEX

CITY           SKY/WX    TMP DP  RH WIND       PRES   REMARKS
DFW AIRPORT    MOSUNNY   84  49  29 E8        30.03F
FTW MEACHAM    SUNNY     84  50  30 SE8       30.02F
DAL-EXECUTIVE  SUNNY     81  51  35 MISG      30.04F
GRAND PRAIRIE  SUNNY     82  48  30 SE5       30.05F
ADDISON        SUNNY     81  48  32 SE7       30.04F
MESQUITE       CLEAR     81  48  32 SE7       30.04F
LANCASTER      CLEAR     82  43  25 E5        30.05F
$$

NORTH CENTRAL TEXAS

CITY           SKY/WX    TMP DP  RH WIND       PRES   REMARKS
SHRMAN/DENISON CLEAR     77  45  31 E7        30.05F
GAINESVILLE    SUNNY     79  54  41 S6        30.06F
BRIDGEPORT     CLEAR     83  51  32 SE9       30.05F
DENTON         SUNNY     82  50  32 SE6       30.03F
WAXAHACHIE     CLEAR     82  52  36 E3        30.05F
GRANBURY       CLEAR     84  51  32 SE6       30.05F
$$

WESTERN NORTH TEXAS

CITY           SKY/WX    TMP DP  RH WIND       PRES   REMARKS
WICHITA FALLS  SUNNY     83  50  31 SE13      30.02F
VERNON         CLEAR     85  44  23 SE18      30.01F
BRECKENRIDGE   CLEAR     85  47  26 SE14      30.02F
COMANCHE       SUNNY     82  51  34 SE9G17    30.05F
$$

CENTRAL AND SOUTH CENTRAL TEXAS

CITY           SKY/WX    TMP DP  RH WIND       PRES   REMARKS
AUSTIN/BERGSTM MOSUNNY   84  51  31 VRB6      30.02F
WACO           SUNNY     83  49  30 E8        30.03F
HILLSBORO      CLEAR     81  51  35 SE6       30.04F
TEMPLE         SUNNY     82  52  35 S8        30.04F
KILLEEN-GRAY   SUNNY     81  50  33 VRB3      30.03F
FORT HOOD      SUNNY     82  49  32 VRB3      30.02F
GEORGETOWN     NOT AVBL
LAGO VISTA     FAIR      84  48  28 E9        30.05F
SAN MARCOS     SUNNY     82  52  34 E6        30.04F
NEW BRAUNFELS  SUNNY     85  49  28 E7        30.02F
RANDOLPH AFB   NOT AVBL
SAN ANTONIO    MOSUNNY   83  52  34 SE8       30.03F
STINSON        SUNNY     88  49  25 SE10      30.00F
PLEASANTON     NOT AVBL
LA GRANGE        N/A     84  52  33 E5        30.01F
GIDDINGS       CLEAR     83  46  27 CALM      30.07F
$$

EAST TEXAS

CITY           SKY/WX    TMP DP  RH WIND       PRES   REMARKS
PARIS          SUNNY     79  48  34 E6        30.06F
CLARKSVILLE    NOT AVBL
TYLER          SUNNY     83  46  27 MISG      30.04F
LONGVIEW       SUNNY     80  49  33 E7        30.03F
PALESTINE      CLEAR     82  50  32 E6        30.04F
NACOGDOCHES    SUNNY     82  52  34 N7        30.03F
$$

TEXAS HILL COUNTRY AND EDWARDS PLATEAU

CITY           SKY/WX    TMP DP  RH WIND       PRES   REMARKS
LLANO          CLEAR     86  48  26 SE9       30.06F
HORSESHOE BAY  FAIR      85  47  26 SE3       30.04F
KERRVILLE      SUNNY     82  54  36 S5        30.05F
FREDERICKSBRG  SUNNY     82  46  28 SE8       30.05F
ROCKSPRINGS    CLEAR     82  50  32 S13G20    30.06F
HONDO          SUNNY     86  50  28 S8        30.03F
UVALDE         CLEAR     87  52  29 SE12G21   30.00F
DEL RIO        SUNNY     90  44  20 SE15      29.93F
$$

SOUTHEAST TEXAS

CITY           SKY/WX    TMP DP  RH WIND       PRES   REMARKS
COLLEGE STN    SUNNY     84  50  30 CALM      30.03F
CALDWELL       CLEAR     82  43  24 E5        30.06F
CROCKETT       MOCLDY    82  50  32 N5        30.06F
BRENHAM        SUNNY     84  49  29 SE6       30.04F
HUNTSVILLE     SUNNY     83  47  28 CALM      30.03F
CONROE         SUNNY     83  51  33 SE6       30.03F
HOUSTON BUSH   MOSUNNY   82  50  32 N5        30.02F
HOUSTON HOBBY  MOSUNNY   82  47  29 VRB5      30.02F
PERLAND        SUNNY     84  43  23 VRB5      30.04F
WHARTON        CLEAR     87  51  28 E5        30.03F
$$

THE UPPER TEXAS COAST

CITY           SKY/WX    TMP DP  RH WIND       PRES   REMARKS
ORANGE         CLEAR     81  42  24 W3        30.04F
PORT ARTHUR    SUNNY     82  51  34 VRB5      30.02F
GALVESTON      SUNNY     78  55  44 SE9       30.05F
ANGLETON       SUNNY     82  54  37 E12G17    30.04F
BAY CITY       CLEAR     82  59  45 S10       30.03F
$$

TEXAS COASTAL BEND, RIO GRANDE PLAINS DEEP SOUTH TEXAS

CITY           SKY/WX    TMP DP  RH WIND       PRES   REMARKS
VICTORIA       SUNNY     85  55  35 E10G16    30.01F
BEEVILLE       FAIR      91  49  23 E9        30.00F
ROCKPORT       SUNNY     83  55  38 SE10      30.01F
PORT ARANSAS   CLEAR     80  65  60 E8        30.02F
PORT LAVACA    CLEAR     81  62  52 E12       30.03F
CORPUS CHRISTI PTSUNNY   87  47  24 E10G17    30.01F
KINGSVILLE NAS MOSUNNY   89  58  34 E12       29.99F
COTULLA        MOSUNNY   93  37  14 SE9       29.97F
LAREDO         SUNNY     95  43  16 E9        29.95F
BROWNSVILLE    SUNNY     85  54  34 SE13      30.00F
PORT ISABEL    SUNNY     84  66  54 E15       29.99F
HEBBRONVILLE   CLEAR     92  38  14 E14       29.99F
MCALLEN        SUNNY     93  50  23 VRB3      29.97F
WESLACO        SUNNY     92  50  24 S3        29.97F
FALFURRIAS     CLEAR     93  47  20 E10       29.97F
EDINBURG       CLEAR     93  44  18 E9        29.98F
$$




USA.gov is the U.S. government's official web portal to all federal, state and local government web resources and services.